#timestamp,LO_Frequency,Hit,StdDev 
1564048815.4,286046995.8,N
1564048835.5,286046995.9,N
1564048855.3,286046996.0,N
1564048875.2,286046993.3,Y
1564048895.9,286046996.9,P
1564048915.7,286046999.1,P
1564048935.6,286046999.1,N
1564048955.4,286046996.7,N
1564048975.2,286046996.8,N
1564048995.1,286046996.7,Y
1564048996.0,286046996.7,P
1564049015.8,286047000.7,N
1564049035.7,286047000.8,N
1564049055.5,286046999.4,N
1564049075.3,286046999.3,N
1564049095.1,286046999.4,N
1564049115.9,286046999.6,N
1564049135.7,286046999.0,N
1564049155.5,286046996.5,N
1564049175.4,286046997.0,N
1564049195.2,286046996.9,N
1564049215.1,286046999.1,N
1564049216.0,286046999.1,N
1564049235.8,286046996.9,N
1564049255.6,286046996.7,N
1564049275.5,286046996.5,N
1564049295.3,286046997.0,N
1564049315.1,286046997.5,N
1564049335.9,286046997.8,N
1564049355.7,286046998.0,N
1564049375.6,286046997.3,N
1564049395.4,286046997.7,N
1564049415.2,286046997.8,N
1564049435.1,286046996.6,N
1564049436.0,286046996.6,N
1564049455.8,286046996.7,N
1564049475.7,286046997.5,N
1564049495.5,286046996.7,N
1564049515.3,286046997.5,N
1564049535.2,286046996.7,N
1564049555.0,286046995.3,Y
1564049555.9,286046995.3,P
1564049575.8,286046999.3,N
1564049595.6,286047000.9,N
1564049615.4,286047000.6,N
1564049635.3,286047000.2,N
1564049655.1,286047001.0,N
1564049675.8,286047000.4,N
1564049695.7,286046999.9,N
1564049715.5,286046998.1,N
1564049735.4,286046998.6,N
1564049755.2,286046998.5,N
1564049775.0,286046998.8,N
1564049775.9,286046998.8,N
1564049795.8,286047001.2,N
1564049815.6,286046998.1,N
1564049835.5,286047001.1,N
1564049855.3,286047000.4,N
1564049875.1,286047000.7,N
1564049895.9,286046998.2,N
1564049915.7,286047000.3,N
1564049935.5,286047000.9,N
1564049955.4,286047000.8,N
1564049975.2,286047001.0,N
1564049995.1,286047001.4,N
1564049996.0,286047001.4,N
1564050015.8,286047002.2,N
1564050035.6,286047001.8,N
1564050055.5,286047002.3,N
1564050075.3,286047004.4,N
1564050095.1,286047002.7,N
1564050115.9,286047001.9,N
1564050135.7,286047001.4,N
1564050155.6,286047002.0,N
1564050175.4,286047002.5,N
1564050195.2,286046999.7,N
1564050215.1,286047000.2,N
1564050216.0,286047000.2,N
1564050235.8,286047002.7,N
1564050255.7,286047002.7,N
1564050275.5,286047001.9,N
1564050295.3,286047000.1,N
1564050315.2,286047002.8,N
1564050335.0,286047000.9,N
1564050335.9,286047000.9,N
1564050355.8,286047002.6,N
1564050375.6,286046999.7,N
1564050395.4,286047000.1,N
1564050415.3,286047002.4,N
1564050435.1,286047001.9,N
1564050455.8,286047002.3,N
1564050475.7,286047002.3,N
1564050495.3,286047002.1,N
1564050515.1,286047002.0,N
1564050535.8,286047001.7,N
1564050555.8,286047002.1,N
1564050575.7,286047001.5,N
1564050595.5,286047004.2,Y
1564050615.3,286047002.1,P
1564050635.2,286047003.8,P
1564050655.0,286047004.4,P
1564050655.9,286047004.4,Y
1564050675.8,286047000.2,P
1564050695.6,286046998.9,N
1564050715.4,286046999.0,N
1564050735.3,286046998.5,N
1564050755.1,286046998.3,N
1564050775.8,286046999.9,N
1564050795.7,286046998.8,N
1564050815.1,286046997.0,N
1564050816.0,286046997.0,N
1564050835.8,286046998.8,N
1564050855.7,286046998.6,N
1564050875.5,286046998.4,N
1564050895.3,286046998.1,N
1564050915.2,286046998.5,N
1564050935.0,286046999.2,N
1564050935.9,286046999.2,N
1564050955.7,286046996.8,N
1564050975.6,286046996.9,N
1564050995.4,286046999.0,N
1564051015.3,286046997.3,N
1564051035.1,286046999.4,N
1564051055.8,286046998.3,N
1564051075.7,286046998.3,N
1564051095.5,286047001.2,N
1564051115.4,286046999.8,N
1564051135.2,286047002.6,N
1564051155.0,286047002.1,N
1564051155.9,286047002.1,N
1564051175.8,286047002.7,N
1564051195.6,286047002.4,N
1564051215.4,286047002.1,N
1564051235.3,286047000.0,N
1564051255.1,286047000.4,N
1564051275.9,286047002.2,N
1564051295.7,286047002.2,N
1564051315.5,286047000.6,N
1564051335.4,286047000.9,N
1564051355.2,286046998.5,N
1564051375.0,286047000.7,N
1564051376.0,286047000.7,N
1564051395.8,286046998.6,N
1564051415.6,286046998.7,N
1564051435.5,286046998.2,N
1564051455.3,286047000.9,N
1564051475.1,286047002.5,N
1564051495.9,286047002.5,N
1564051515.7,286047002.3,N
1564051535.6,286046999.7,N
1564051555.4,286047001.7,N
1564051575.2,286047002.2,N
1564051595.1,286047000.5,N
1564051596.0,286047000.5,N
1564051615.8,286047000.2,N
1564051635.6,286047000.1,N
1564051655.5,286047002.7,N
1564051675.3,286047002.3,N
1564051695.2,286047002.7,N
1564051715.9,286046999.7,N
1564051735.7,286047000.6,N
1564051755.6,286046998.3,N
1564051775.4,286047000.8,N
1564051795.3,286046998.1,N
1564051815.1,286047001.2,N
1564051816.0,286047001.2,N
1564051835.8,286047001.1,N
1564051855.7,286046998.2,N
1564051875.5,286046999.0,N
1564051895.3,286046998.4,N
1564051915.2,286046999.1,N
1564051935.0,286046999.4,N
1564051935.9,286046999.4,N
1564051955.8,286046999.3,N
1564051975.6,286046998.5,N
1564051995.4,286046999.3,N
1564052015.3,286046997.0,N
1564052035.1,286046996.9,N
1564052055.8,286046997.7,N
1564052075.7,286046996.8,N
1564052095.5,286046997.3,N
1564052115.4,286046996.9,N
1564052135.2,286046996.5,N
1564052155.0,286046999.6,N
1564052155.9,286046999.6,N
1564052175.8,286046997.7,N
1564052195.6,286046997.2,N
1564052215.5,286046997.5,N
1564052235.3,286046995.2,Y
1564052255.1,286046997.3,P
1564052275.9,286046997.7,P
1564052295.7,286046997.5,P
1564052315.6,286046994.9,Y
1564052335.4,286046998.7,P
1564052355.2,286046998.6,P
1564052375.1,286046998.3,P
1564052376.0,286046998.3,Y
1564052395.8,286047000.4,P
